Time,TemperatureF,DewpointF,PressureIn,WindDirection,WindDirectionDegrees,WindSpeedMPH,WindSpeedGustMPH,Humidity,HourlyPrecipIn,Conditions,Clouds,dailyrainin,SolarRadiationWatts/m^2,SoftwareType,DateUTC
2013-06-09 00:00:00,56.8,46.0,30.10,East,81,0.0,6.0,67,0.00,,---,0.00,0.00,VWS V14.01,2013-06-09 07:00:00,
2013-06-09 00:05:00,56.8,46.0,30.10,East,89,4.0,11.0,67,0.00,,---,0.00,0.00,VWS V14.01,2013-06-09 07:05:00,
2013-06-09 00:10:00,56.7,45.9,30.10,NE,42,1.0,11.0,67,0.00,,---,0.00,0.00,VWS V14.01,2013-06-09 07:10:00,
2013-06-09 00:15:00,56.6,45.8,30.10,ENE,57,2.0,11.0,67,0.00,,---,0.00,0.00,VWS V14.01,2013-06-09 07:15:00,
2013-06-09 00:20:00,56.6,46.2,30.10,NE,52,0.0,11.0,68,0.00,,---,0.00,0.00,VWS V14.01,2013-06-09 07:20:00,
2013-06-09 00:25:00,56.6,46.2,30.10,NE,48,0.0,11.0,68,0.00,,---,0.00,0.00,VWS V14.01,2013-06-09 07:25:00,
2013-06-09 00:30:00,56.5,46.1,30.10,ENE,68,5.0,7.0,68,0.00,,---,0.00,0.00,VWS V14.01,2013-06-09 07:30:00,
2013-06-09 00:35:00,56.5,46.1,30.10,ENE,78,5.0,11.0,68,0.00,,---,0.00,0.00,VWS V14.01,2013-06-09 07:35:00,
2013-06-09 00:40:00,56.4,46.0,30.10,ENE,61,1.0,11.0,68,0.00,,---,0.00,0.00,VWS V14.01,2013-06-09 07:40:00,
2013-06-09 00:45:00,56.3,45.9,30.10,ENE,72,6.0,11.0,68,0.00,,---,0.00,0.00,VWS V14.01,2013-06-09 07:45:00,
2013-06-09 00:50:00,56.2,46.2,30.10,NE,51,2.0,11.0,69,0.00,,---,0.00,0.00,VWS V14.01,2013-06-09 07:50:00,
2013-06-09 00:55:00,56.1,46.1,30.10,NE,53,0.0,11.0,69,0.00,,---,0.00,0.00,VWS V14.01,2013-06-09 07:55:00,
2013-06-09 01:00:00,56.0,46.4,30.10,East,88,4.0,9.0,70,0.00,,---,0.00,0.00,VWS V14.01,2013-06-09 08:00:00,
2013-06-09 01:05:00,55.9,46.3,30.10,East,83,0.0,10.0,70,0.00,,---,0.00,0.00,VWS V14.01,2013-06-09 08:05:00,
2013-06-09 01:10:00,55.8,46.2,30.10,ENE,78,4.0,10.0,70,0.00,,---,0.00,0.00,VWS V14.01,2013-06-09 08:10:00,
2013-06-09 01:15:00,55.7,46.1,30.10,ENE,77,4.0,10.0,70,0.00,,---,0.00,0.00,VWS V14.01,2013-06-09 08:15:00,
2013-06-09 01:20:00,55.7,46.5,30.10,ENE,77,6.0,10.0,71,0.00,,---,0.00,0.00,VWS V14.01,2013-06-09 08:20:00,
2013-06-09 01:25:00,55.6,46.4,30.10,ENE,75,1.0,10.0,71,0.00,,---,0.00,0.00,VWS V14.01,2013-06-09 08:25:00,
2013-06-09 01:30:00,55.5,46.3,30.10,ENE,75,1.0,5.0,71,0.00,,---,0.00,0.00,VWS V14.01,2013-06-09 08:30:00,
2013-06-09 01:35:00,55.5,46.3,30.10,ENE,78,5.0,6.0,71,0.00,,---,0.00,0.00,VWS V14.01,2013-06-09 08:35:00,
2013-06-09 01:40:00,55.4,46.2,30.10,East,89,1.0,6.0,71,0.00,,---,0.00,0.00,VWS V14.01,2013-06-09 08:40:00,
2013-06-09 01:45:00,55.3,46.1,30.10,ENE,69,6.0,7.0,71,0.00,,---,0.00,0.00,VWS V14.01,2013-06-09 08:45:00,
2013-06-09 01:50:00,55.3,46.4,30.10,ENE,70,0.0,7.0,72,0.00,,---,0.00,0.00,VWS V14.01,2013-06-09 08:50:00,
2013-06-09 01:55:00,55.2,46.3,30.10,ENE,73,4.0,7.0,72,0.00,,---,0.00,0.00,VWS V14.01,2013-06-09 08:55:00,
2013-06-09 02:00:00,55.1,46.2,30.09,ENE,71,0.0,9.0,72,0.00,,---,0.00,0.00,VWS V14.01,2013-06-09 09:00:00,
2013-06-09 02:05:00,55.1,46.2,30.09,ENE,72,0.0,9.0,72,0.00,,---,0.00,0.00,VWS V14.01,2013-06-09 09:05:00,
2013-06-09 02:10:00,55.0,46.2,30.09,ENE,77,4.0,9.0,72,0.00,,---,0.00,0.00,VWS V14.01,2013-06-09 09:10:00,
2013-06-09 02:15:00,55.0,46.2,30.09,East,82,2.0,9.0,72,0.00,,---,0.00,0.00,VWS V14.01,2013-06-09 09:15:00,
2013-06-09 02:20:00,54.9,46.4,30.09,East,81,1.0,9.0,73,0.00,,---,0.00,0.00,VWS V14.01,2013-06-09 09:20:00,
2013-06-09 02:25:00,54.9,46.4,30.09,East,84,0.0,9.0,73,0.00,,---,0.00,0.00,VWS V14.01,2013-06-09 09:25:00,
2013-06-09 02:30:00,54.8,46.3,30.09,East,84,1.0,7.0,73,0.00,,---,0.00,0.00,VWS V14.01,2013-06-09 09:30:00,
2013-06-09 02:35:00,54.8,46.7,30.09,East,89,2.0,8.0,74,0.00,,---,0.00,0.00,VWS V14.01,2013-06-09 09:35:00,
2013-06-09 02:40:00,54.7,46.6,30.09,East,93,1.0,9.0,74,0.00,,---,0.00,0.00,VWS V14.01,2013-06-09 09:40:00,
2013-06-09 02:45:00,54.6,46.5,30.09,East,94,0.0,9.0,74,0.00,,---,0.00,0.00,VWS V14.01,2013-06-09 09:45:00,
2013-06-09 02:50:00,54.6,46.5,30.09,East,84,5.0,9.0,74,0.00,,---,0.00,0.00,VWS V14.01,2013-06-09 09:50:00,
2013-06-09 02:55:00,54.5,46.4,30.09,East,83,2.0,9.0,74,0.00,,---,0.00,0.00,VWS V14.01,2013-06-09 09:55:00,
2013-06-09 03:00:00,54.4,46.3,30.09,East,83,0.0,7.0,74,0.00,,---,0.00,0.00,VWS V14.01,2013-06-09 10:00:00,
2013-06-09 03:05:00,54.2,46.1,30.10,East,81,2.0,7.0,74,0.00,,---,0.00,0.00,VWS V14.01,2013-06-09 10:05:00,
2013-06-09 03:10:00,54.1,46.4,30.10,East,87,0.0,8.0,75,0.00,,---,0.00,0.00,VWS V14.01,2013-06-09 10:10:00,
2013-06-09 03:15:00,54.0,46.3,30.09,East,87,1.0,8.0,75,0.00,,---,0.00,0.00,VWS V14.01,2013-06-09 10:15:00,
2013-06-09 03:20:00,53.9,46.2,30.09,East,83,1.0,8.0,75,0.00,,---,0.00,0.00,VWS V14.01,2013-06-09 10:20:00,
2013-06-09 03:25:00,53.8,46.1,30.09,East,83,0.0,8.0,75,0.00,,---,0.00,0.00,VWS V14.01,2013-06-09 10:25:00,
2013-06-09 03:30:00,53.7,46.0,30.09,East,83,0.0,0.0,75,0.00,,---,0.00,0.00,VWS V14.01,2013-06-09 10:30:00,
2013-06-09 03:35:00,53.6,45.9,30.09,East,83,1.0,4.0,75,0.00,,---,0.00,0.00,VWS V14.01,2013-06-09 10:35:00,
2013-06-09 03:40:00,53.5,45.8,30.09,East,83,0.0,4.0,75,0.00,,---,0.00,0.00,VWS V14.01,2013-06-09 10:40:00,
2013-06-09 03:45:00,53.3,45.6,30.09,East,83,2.0,4.0,75,0.00,,---,0.00,0.00,VWS V14.01,2013-06-09 10:45:00,
2013-06-09 03:50:00,53.2,45.5,30.09,East,83,0.0,4.0,75,0.00,,---,0.00,0.00,VWS V14.01,2013-06-09 10:50:00,
2013-06-09 03:55:00,53.0,45.3,30.09,East,83,0.0,4.0,75,0.00,,---,0.00,0.00,VWS V14.01,2013-06-09 10:55:00,
2013-06-09 04:00:00,52.9,45.5,30.09,East,83,0.0,4.0,76,0.00,,---,0.00,0.00,VWS V14.01,2013-06-09 11:00:00,
2013-06-09 04:05:00,52.8,45.5,30.09,East,83,0.0,4.0,76,0.00,,---,0.00,0.00,VWS V14.01,2013-06-09 11:05:00,
2013-06-09 04:10:00,52.6,45.3,30.09,East,83,2.0,5.0,76,0.00,,---,0.00,0.00,VWS V14.01,2013-06-09 11:10:00,
2013-06-09 04:15:00,52.4,45.1,30.09,East,83,3.0,5.0,76,0.00,,---,0.00,0.00,VWS V14.01,2013-06-09 11:15:00,
2013-06-09 04:20:00,52.3,45.3,30.09,East,83,0.0,5.0,77,0.00,,---,0.00,0.00,VWS V14.01,2013-06-09 11:20:00,
2013-06-09 04:25:00,52.1,45.1,30.09,East,84,1.0,6.0,77,0.00,,---,0.00,0.00,VWS V14.01,2013-06-09 11:25:00,
2013-06-09 04:30:00,52.0,45.4,30.10,East,84,2.0,5.0,78,0.00,,---,0.00,0.00,VWS V14.01,2013-06-09 11:30:00,
2013-06-09 04:35:00,51.9,45.3,30.09,East,82,3.0,5.0,78,0.00,,---,0.00,0.00,VWS V14.01,2013-06-09 11:35:00,
2013-06-09 04:40:00,51.8,45.2,30.10,East,82,0.0,6.0,78,0.00,,---,0.00,0.00,VWS V14.01,2013-06-09 11:40:00,
2013-06-09 04:45:00,51.8,45.5,30.09,East,84,0.0,7.0,79,0.00,,---,0.00,0.00,VWS V14.01,2013-06-09 11:45:00,
2013-06-09 04:50:00,51.9,45.6,30.09,East,88,4.0,7.0,79,0.00,,---,0.00,0.00,VWS V14.01,2013-06-09 11:50:00,
2013-06-09 04:55:00,51.9,45.6,30.09,East,88,0.0,7.0,79,0.00,,---,0.00,0.00,VWS V14.01,2013-06-09 11:55:00,
2013-06-09 05:00:00,52.0,45.7,30.09,East,89,6.0,6.0,79,0.00,,---,0.00,0.00,VWS V14.01,2013-06-09 12:00:00,
2013-06-09 05:05:00,52.0,45.7,30.09,East,89,3.0,6.0,79,0.00,,---,0.00,0.00,VWS V14.01,2013-06-09 12:05:00,
2013-06-09 05:10:00,52.0,45.4,30.09,East,89,0.0,6.0,78,0.00,,---,0.00,0.00,VWS V14.01,2013-06-09 12:10:00,
2013-06-09 05:15:00,52.1,45.5,30.09,East,90,1.0,6.0,78,0.00,,---,0.00,0.00,VWS V14.01,2013-06-09 12:15:00,
2013-06-09 05:20:00,52.1,45.5,30.09,East,94,0.0,6.0,78,0.00,,---,0.00,0.00,VWS V14.01,2013-06-09 12:20:00,
2013-06-09 05:25:00,52.1,45.8,30.09,East,97,0.0,6.0,79,0.00,,---,0.00,0.00,VWS V14.01,2013-06-09 12:25:00,
2013-06-09 05:30:00,52.1,45.5,30.09,East,97,0.0,4.0,78,0.00,,---,0.00,0.00,VWS V14.01,2013-06-09 12:30:00,
2013-06-09 05:35:00,52.2,45.6,30.09,East,98,1.0,6.0,78,0.00,,---,0.00,5.00,VWS V14.01,2013-06-09 12:35:00,
2013-06-09 05:40:00,52.2,45.6,30.09,East,87,0.0,7.0,78,0.00,,---,0.00,7.00,VWS V14.01,2013-06-09 12:40:00,
2013-06-09 05:45:00,52.2,45.6,30.09,East,87,0.0,7.0,78,0.00,,---,0.00,5.00,VWS V14.01,2013-06-09 12:45:00,
2013-06-09 05:50:00,52.2,45.6,30.09,East,89,3.0,7.0,78,0.00,,---,0.00,5.00,VWS V14.01,2013-06-09 12:50:00,
2013-06-09 05:55:00,52.3,45.7,30.09,East,89,0.0,7.0,78,0.00,,---,0.00,5.00,VWS V14.01,2013-06-09 12:55:00,
2013-06-09 06:00:00,52.4,45.8,30.09,East,89,1.0,2.0,78,0.00,,---,0.00,7.00,VWS V14.01,2013-06-09 13:00:00,
2013-06-09 06:05:00,52.4,45.8,30.09,East,89,0.0,5.0,78,0.00,,---,0.00,11.00,VWS V14.01,2013-06-09 13:05:00,
2013-06-09 06:10:00,52.4,45.8,30.09,East,89,0.0,5.0,78,0.00,,---,0.00,16.00,VWS V14.01,2013-06-09 13:10:00,
2013-06-09 06:15:00,52.5,45.8,30.09,East,94,2.0,6.0,78,0.00,,---,0.00,19.00,VWS V14.01,2013-06-09 13:15:00,
2013-06-09 06:20:00,52.6,46.0,30.09,East,94,1.0,6.0,78,0.00,,---,0.00,12.00,VWS V14.01,2013-06-09 13:20:00,
2013-06-09 06:25:00,52.7,45.7,30.09,East,94,0.0,6.0,77,0.00,,---,0.00,16.00,VWS V14.01,2013-06-09 13:25:00,
2013-06-09 06:30:00,52.8,45.8,30.10,ESE,104,4.0,8.0,77,0.00,,---,0.00,21.00,VWS V14.01,2013-06-09 13:30:00,
2013-06-09 06:35:00,52.8,45.8,30.09,ESE,104,0.0,8.0,77,0.00,,---,0.00,19.00,VWS V14.01,2013-06-09 13:35:00,
2013-06-09 06:40:00,52.8,45.8,30.10,ESE,104,0.0,8.0,77,0.00,,---,0.00,23.00,VWS V14.01,2013-06-09 13:40:00,
2013-06-09 06:45:00,52.8,45.5,30.10,East,99,0.0,8.0,76,0.00,,---,0.00,23.00,VWS V14.01,2013-06-09 13:45:00,
2013-06-09 06:50:00,52.9,45.5,30.10,East,99,0.0,8.0,76,0.00,,---,0.00,21.00,VWS V14.01,2013-06-09 13:50:00,
2013-06-09 06:55:00,52.9,45.5,30.10,East,99,0.0,8.0,76,0.00,,---,0.00,21.00,VWS V14.01,2013-06-09 13:55:00,
2013-06-09 07:00:00,53.0,45.7,30.10,ESE,102,0.0,7.0,76,0.00,,---,0.00,19.00,VWS V14.01,2013-06-09 14:00:00,
2013-06-09 07:05:00,53.0,45.3,30.10,ESE,102,0.0,7.0,75,0.00,,---,0.00,19.00,VWS V14.01,2013-06-09 14:05:00,
2013-06-09 07:10:00,53.0,45.7,30.10,ESE,102,1.0,7.0,76,0.00,,---,0.00,30.00,VWS V14.01,2013-06-09 14:10:00,
2013-06-09 07:15:00,53.1,46.1,30.10,ESE,102,0.0,7.0,77,0.00,,---,0.00,37.00,VWS V14.01,2013-06-09 14:15:00,
2013-06-09 07:20:00,53.2,45.8,30.10,East,101,0.0,7.0,76,0.00,,---,0.00,32.00,VWS V14.01,2013-06-09 14:20:00,
2013-06-09 07:25:00,53.3,45.9,30.10,East,101,4.0,7.0,76,0.00,,---,0.00,40.00,VWS V14.01,2013-06-09 14:25:00,
2013-06-09 07:30:00,53.3,45.9,30.10,East,98,2.0,5.0,76,0.00,,---,0.00,53.00,VWS V14.01,2013-06-09 14:30:00,
2013-06-09 07:35:00,53.3,45.9,30.10,ESE,102,6.0,7.0,76,0.00,,---,0.00,62.00,VWS V14.01,2013-06-09 14:35:00,
2013-06-09 07:40:00,53.5,46.1,30.10,ESE,102,4.0,7.0,76,0.00,,---,0.00,46.00,VWS V14.01,2013-06-09 14:40:00,
2013-06-09 07:45:00,53.6,46.2,30.10,East,98,0.0,7.0,76,0.00,,---,0.00,44.00,VWS V14.01,2013-06-09 14:45:00,
2013-06-09 07:50:00,53.6,45.9,30.10,East,94,1.0,7.0,75,0.00,,---,0.00,39.00,VWS V14.01,2013-06-09 14:50:00,
2013-06-09 07:55:00,53.6,45.9,30.10,East,87,0.0,7.0,75,0.00,,---,0.00,32.00,VWS V14.01,2013-06-09 14:55:00,
2013-06-09 08:00:00,53.6,45.9,30.10,ESE,104,0.0,8.0,75,0.00,,---,0.00,28.00,VWS V14.01,2013-06-09 15:00:00,
2013-06-09 08:05:00,53.6,45.9,30.10,ESE,102,0.0,8.0,75,0.00,,---,0.00,35.00,VWS V14.01,2013-06-09 15:05:00,
2013-06-09 08:10:00,53.7,46.3,30.10,ESE,102,0.0,8.0,76,0.00,,---,0.00,32.00,VWS V14.01,2013-06-09 15:10:00,
2013-06-09 08:15:00,53.7,46.3,30.10,East,101,0.0,8.0,76,0.00,,---,0.00,32.00,VWS V14.01,2013-06-09 15:15:00,
2013-06-09 08:20:00,53.7,46.0,30.10,East,101,0.0,8.0,75,0.00,,---,0.00,30.00,VWS V14.01,2013-06-09 15:20:00,
2013-06-09 08:25:00,53.7,46.0,30.10,ESE,104,1.0,8.0,75,0.00,,---,0.00,26.00,VWS V14.01,2013-06-09 15:25:00,
2013-06-09 08:30:00,53.7,45.6,30.10,East,98,1.0,5.0,74,0.00,,---,0.00,37.00,VWS V14.01,2013-06-09 15:30:00,
2013-06-09 08:35:00,53.7,46.0,30.10,East,94,0.0,6.0,75,0.00,,---,0.00,32.00,VWS V14.01,2013-06-09 15:35:00,
2013-06-09 08:40:00,53.7,46.0,30.11,East,94,0.0,6.0,75,0.00,,---,0.00,28.00,VWS V14.01,2013-06-09 15:40:00,
2013-06-09 08:45:00,53.7,46.0,30.11,East,94,0.0,6.0,75,0.00,,---,0.00,32.00,VWS V14.01,2013-06-09 15:45:00,
2013-06-09 08:50:00,53.8,45.7,30.11,East,96,4.0,6.0,74,0.00,,---,0.00,33.00,VWS V14.01,2013-06-09 15:50:00,
2013-06-09 08:55:00,53.8,45.7,30.11,East,95,2.0,6.0,74,0.00,,---,0.00,47.00,VWS V14.01,2013-06-09 15:55:00,
2013-06-09 09:00:00,53.9,46.2,30.11,East,96,1.0,5.0,75,0.00,,---,0.00,49.00,VWS V14.01,2013-06-09 16:00:00,
2013-06-09 09:05:00,54.0,45.9,30.11,East,96,0.0,5.0,74,0.00,,---,0.00,51.00,VWS V14.01,2013-06-09 16:05:00,
2013-06-09 09:10:00,54.1,46.0,30.11,East,96,1.0,5.0,74,0.00,,---,0.00,54.00,VWS V14.01,2013-06-09 16:10:00,
2013-06-09 09:15:00,54.2,46.1,30.11,East,98,1.0,7.0,74,0.00,,---,0.00,65.00,VWS V14.01,2013-06-09 16:15:00,
2013-06-09 09:20:00,54.3,45.8,30.11,East,98,0.0,7.0,73,0.00,,---,0.00,70.00,VWS V14.01,2013-06-09 16:20:00,
2013-06-09 09:25:00,54.5,46.0,30.11,East,96,5.0,7.0,73,0.00,,---,0.00,62.00,VWS V14.01,2013-06-09 16:25:00,
2013-06-09 09:30:00,54.6,46.5,30.11,East,89,2.0,5.0,74,0.00,,---,0.00,47.00,VWS V14.01,2013-06-09 16:30:00,
2013-06-09 09:35:00,54.8,46.7,30.11,East,89,0.0,5.0,74,0.00,,---,0.00,51.00,VWS V14.01,2013-06-09 16:35:00,
2013-06-09 09:40:00,54.8,46.3,30.11,East,89,0.0,5.0,73,0.00,,---,0.00,46.00,VWS V14.01,2013-06-09 16:40:00,
2013-06-09 09:45:00,54.9,45.7,30.11,East,89,1.0,5.0,71,0.00,,---,0.00,58.00,VWS V14.01,2013-06-09 16:45:00,
2013-06-09 09:50:00,54.9,45.7,30.11,East,90,0.0,5.0,71,0.00,,---,0.00,65.00,VWS V14.01,2013-06-09 16:50:00,
2013-06-09 09:55:00,55.0,45.8,30.11,East,90,0.0,5.0,71,0.00,,---,0.00,63.00,VWS V14.01,2013-06-09 16:55:00,
2013-06-09 10:00:00,55.1,46.6,30.12,ENE,62,1.0,6.0,73,0.00,,---,0.00,67.00,VWS V14.01,2013-06-09 17:00:00,
2013-06-09 10:05:00,55.3,46.8,30.11,ENE,57,1.0,6.0,73,0.00,,---,0.00,65.00,VWS V14.01,2013-06-09 17:05:00,
2013-06-09 10:10:00,55.3,46.4,30.11,ENE,57,2.0,6.0,72,0.00,,---,0.00,65.00,VWS V14.01,2013-06-09 17:10:00,
2013-06-09 10:15:00,55.3,46.1,30.11,ENE,57,0.0,6.0,71,0.00,,---,0.00,58.00,VWS V14.01,2013-06-09 17:15:00,
2013-06-09 10:20:00,55.3,46.4,30.11,ENE,57,1.0,6.0,72,0.00,,---,0.00,53.00,VWS V14.01,2013-06-09 17:20:00,
2013-06-09 10:25:00,55.3,46.4,30.12,ENE,57,0.0,6.0,72,0.00,,---,0.00,54.00,VWS V14.01,2013-06-09 17:25:00,
2013-06-09 10:30:00,55.3,45.7,30.12,ENE,57,0.0,2.0,70,0.00,,---,0.00,67.00,VWS V14.01,2013-06-09 17:30:00,
2013-06-09 10:35:00,55.3,46.1,30.11,ENE,57,1.0,2.0,71,0.00,,---,0.00,69.00,VWS V14.01,2013-06-09 17:35:00,
2013-06-09 10:40:00,55.3,46.4,30.11,ENE,57,4.0,4.0,72,0.00,,---,0.00,88.00,VWS V14.01,2013-06-09 17:40:00,
2013-06-09 10:45:00,55.4,46.2,30.11,ENE,57,0.0,4.0,71,0.00,,---,0.00,105.00,VWS V14.01,2013-06-09 17:45:00,
2013-06-09 10:50:00,55.5,46.3,30.11,ENE,57,0.0,4.0,71,0.00,,---,0.00,127.00,VWS V14.01,2013-06-09 17:50:00,
2013-06-09 10:55:00,55.7,46.5,30.11,ENE,57,0.0,4.0,71,0.00,,---,0.00,134.00,VWS V14.01,2013-06-09 17:55:00,
2013-06-09 11:00:00,55.8,46.2,30.11,ENE,57,0.0,0.0,70,0.00,,---,0.00,102.00,VWS V14.01,2013-06-09 18:00:00,
2013-06-09 11:05:00,56.0,46.7,30.11,ENE,57,0.0,2.0,71,0.00,,---,0.00,84.00,VWS V14.01,2013-06-09 18:05:00,
2013-06-09 11:10:00,56.2,46.9,30.11,ENE,58,1.0,6.0,71,0.00,,---,0.00,91.00,VWS V14.01,2013-06-09 18:10:00,
2013-06-09 11:15:00,56.4,47.1,30.11,ENE,57,0.0,6.0,71,0.00,,---,0.00,102.00,VWS V14.01,2013-06-09 18:15:00,
2013-06-09 11:20:00,56.6,46.6,30.11,ENE,57,0.0,6.0,69,0.00,,---,0.00,113.00,VWS V14.01,2013-06-09 18:20:00,
2013-06-09 11:25:00,56.7,46.3,30.12,ENE,58,0.0,6.0,68,0.00,,---,0.00,116.00,VWS V14.01,2013-06-09 18:25:00,
2013-06-09 11:30:00,56.8,47.1,30.12,ENE,58,0.0,6.0,70,0.00,,---,0.00,130.00,VWS V14.01,2013-06-09 18:30:00,
2013-06-09 11:35:00,57.0,46.6,30.11,ENE,58,0.0,6.0,68,0.00,,---,0.00,146.00,VWS V14.01,2013-06-09 18:35:00,
2013-06-09 11:40:00,57.2,46.8,30.12,ENE,58,3.0,6.0,68,0.00,,---,0.00,176.00,VWS V14.01,2013-06-09 18:40:00,
2013-06-09 11:45:00,57.5,47.0,30.11,ENE,58,2.0,6.0,68,0.00,,---,0.00,167.00,VWS V14.01,2013-06-09 18:45:00,
2013-06-09 11:50:00,57.8,46.9,30.11,ENE,63,5.0,6.0,67,0.00,,---,0.00,162.00,VWS V14.01,2013-06-09 18:50:00,
2013-06-09 11:55:00,58.0,47.9,30.11,ENE,64,0.0,6.0,69,0.00,,---,0.00,132.00,VWS V14.01,2013-06-09 18:55:00,
2013-06-09 12:00:00,58.1,47.2,30.11,ENE,64,0.0,2.0,67,0.00,,---,0.00,97.00,VWS V14.01,2013-06-09 19:00:00,
2013-06-09 12:05:00,58.2,46.9,30.11,ENE,64,0.0,4.0,66,0.00,,---,0.00,83.00,VWS V14.01,2013-06-09 19:05:00,
2013-06-09 12:10:00,58.3,47.0,30.11,ENE,64,2.0,4.0,66,0.00,,---,0.00,158.00,VWS V14.01,2013-06-09 19:10:00,
2013-06-09 12:15:00,58.5,47.2,30.11,ENE,64,0.0,4.0,66,0.00,,---,0.00,204.00,VWS V14.01,2013-06-09 19:15:00,
2013-06-09 12:20:00,58.6,47.3,30.11,ENE,64,0.0,4.0,66,0.00,,---,0.00,216.00,VWS V14.01,2013-06-09 19:20:00,
2013-06-09 12:25:00,58.8,47.9,30.11,ENE,64,0.0,4.0,67,0.00,,---,0.00,227.00,VWS V14.01,2013-06-09 19:25:00,
2013-06-09 12:30:00,59.0,47.7,30.11,ENE,63,0.0,4.0,66,0.00,,---,0.00,250.00,VWS V14.01,2013-06-09 19:30:00,
2013-06-09 12:35:00,59.3,47.5,30.11,ENE,63,0.0,4.0,65,0.00,,---,0.00,181.00,VWS V14.01,2013-06-09 19:35:00,
2013-06-09 12:40:00,59.6,47.8,30.11,ENE,63,0.0,5.0,65,0.00,,---,0.00,174.00,VWS V14.01,2013-06-09 19:40:00,
2013-06-09 12:45:00,59.8,47.2,30.10,ENE,63,0.0,5.0,63,0.00,,---,0.00,230.00,VWS V14.01,2013-06-09 19:45:00,
2013-06-09 12:50:00,59.9,48.1,30.10,ENE,63,0.0,5.0,65,0.00,,---,0.00,218.00,VWS V14.01,2013-06-09 19:50:00,
2013-06-09 12:55:00,60.3,48.5,30.10,NNE,12,6.0,7.0,65,0.00,,---,0.00,223.00,VWS V14.01,2013-06-09 19:55:00,
2013-06-09 13:00:00,60.7,48.5,30.10,West,279,8.0,8.0,64,0.00,,---,0.00,169.00,VWS V14.01,2013-06-09 20:00:00,
2013-06-09 13:05:00,61.1,48.8,30.10,WNW,283,4.0,9.0,64,0.00,,---,0.00,225.00,VWS V14.01,2013-06-09 20:05:00,
2013-06-09 13:09:00,61.6,49.3,30.10,WSW,256,8.0,9.0,64,0.00,,---,0.00,271.00,VWS V14.01,2013-06-09 20:09:00,
2013-06-09 13:14:00,62.2,49.9,30.10,WSW,254,6.0,9.0,64,0.00,,---,0.00,186.00,VWS V14.01,2013-06-09 20:14:00,
2013-06-09 13:19:00,62.5,49.3,30.10,WSW,255,6.0,9.0,62,0.00,,---,0.00,353.00,VWS V14.01,2013-06-09 20:19:00,
2013-06-09 13:24:00,62.6,48.5,30.10,West,279,3.0,9.0,60,0.00,,---,0.00,141.00,VWS V14.01,2013-06-09 20:24:00,
2013-06-09 13:29:00,62.6,49.4,30.09,West,274,9.0,10.0,62,0.00,,---,0.00,118.00,VWS V14.01,2013-06-09 20:29:00,
2013-06-09 13:30:00,62.6,48.5,30.10,West,274,6.0,9.0,60,0.00,,---,0.00,141.00,VWS V14.01,2013-06-09 20:30:00,
2013-06-09 13:34:00,62.7,49.5,30.09,West,269,7.0,10.0,62,0.00,,---,0.00,105.00,VWS V14.01,2013-06-09 20:34:00,
2013-06-09 13:39:00,62.9,48.8,30.09,West,279,9.0,11.0,60,0.00,,---,0.00,93.00,VWS V14.01,2013-06-09 20:39:00,
2013-06-09 13:44:00,62.8,48.3,30.09,West,279,7.0,11.0,59,0.00,,---,0.00,120.00,VWS V14.01,2013-06-09 20:44:00,
2013-06-09 13:49:00,62.6,47.6,30.09,NW,313,6.0,11.0,58,0.00,,---,0.00,114.00,VWS V14.01,2013-06-09 20:49:00,
2013-06-09 13:54:00,62.6,49.0,30.09,WSW,247,8.0,11.0,61,0.00,,---,0.00,118.00,VWS V14.01,2013-06-09 20:54:00,
2013-06-09 13:59:00,63.0,48.9,30.09,SW,227,5.0,7.0,60,0.00,,---,0.00,134.00,VWS V14.01,2013-06-09 20:59:00,
2013-06-09 14:00:00,62.7,49.5,30.09,SW,228,11.0,11.0,62,0.00,,---,0.00,111.00,VWS V14.01,2013-06-09 21:00:00,
2013-06-09 14:04:00,63.5,48.9,30.09,West,259,6.0,12.0,59,0.00,,---,0.00,141.00,VWS V14.01,2013-06-09 21:04:00,
2013-06-09 14:09:00,63.9,49.3,30.09,WNW,298,2.0,12.0,59,0.00,,---,0.00,114.00,VWS V14.01,2013-06-09 21:09:00,
2013-06-09 14:14:00,64.0,47.5,30.09,NW,305,6.0,12.0,55,0.00,,---,0.00,47.00,VWS V14.01,2013-06-09 21:14:00,
2013-06-09 14:19:00,63.8,47.3,30.09,WNW,283,5.0,12.0,55,0.00,,---,0.00,47.00,VWS V14.01,2013-06-09 21:19:00,
2013-06-09 14:24:00,63.4,47.0,30.09,NNW,348,6.0,12.0,55,0.00,,---,0.00,39.00,VWS V14.01,2013-06-09 21:24:00,
2013-06-09 14:29:00,63.1,47.2,30.08,NW,310,5.0,6.0,56,0.00,,---,0.00,44.00,VWS V14.01,2013-06-09 21:29:00,
2013-06-09 14:30:00,63.4,47.0,30.08,North,353,1.0,12.0,55,0.00,,---,0.00,39.00,VWS V14.01,2013-06-09 21:30:00,
2013-06-09 14:34:00,63.0,47.1,30.08,NNW,331,2.0,7.0,56,0.00,,---,0.00,58.00,VWS V14.01,2013-06-09 21:34:00,
2013-06-09 14:39:00,62.9,47.0,30.08,NNE,24,0.0,9.0,56,0.00,,---,0.00,67.00,VWS V14.01,2013-06-09 21:39:00,
2013-06-09 14:44:00,62.8,46.9,30.08,North,352,4.0,9.0,56,0.00,,---,0.00,81.00,VWS V14.01,2013-06-09 21:44:00,
2013-06-09 14:49:00,62.7,47.3,30.08,North,354,0.0,9.0,57,0.00,,---,0.00,83.00,VWS V14.01,2013-06-09 21:49:00,
2013-06-09 14:54:00,62.9,47.5,30.08,NNE,30,2.0,9.0,57,0.00,,---,0.00,47.00,VWS V14.01,2013-06-09 21:54:00,
2013-06-09 14:59:00,63.0,47.1,30.08,North,360,2.0,10.0,56,0.00,,---,0.00,69.00,VWS V14.01,2013-06-09 21:59:00,
2013-06-09 15:00:00,63.0,48.0,30.08,NE,34,1.0,9.0,58,0.00,,---,0.00,44.00,VWS V14.01,2013-06-09 22:00:00,
2013-06-09 15:04:00,62.9,47.0,30.08,NNE,23,0.0,10.0,56,0.00,,---,0.00,105.00,VWS V14.01,2013-06-09 22:04:00,
2013-06-09 15:09:00,62.9,47.0,30.08,NW,324,5.0,10.0,56,0.00,,---,0.00,93.00,VWS V14.01,2013-06-09 22:09:00,
2013-06-09 15:14:00,62.9,47.0,30.08,WNW,293,1.0,10.0,56,0.00,,---,0.00,100.00,VWS V14.01,2013-06-09 22:14:00,
2013-06-09 15:19:00,62.9,47.9,30.08,NNE,13,2.0,10.0,58,0.00,,---,0.00,121.00,VWS V14.01,2013-06-09 22:19:00,
2013-06-09 15:24:00,62.9,47.5,30.07,NNW,344,4.0,10.0,57,0.00,,---,0.00,137.00,VWS V14.01,2013-06-09 22:24:00,
2013-06-09 15:29:00,63.0,48.0,30.07,NW,315,1.0,7.0,58,0.00,,---,0.00,134.00,VWS V14.01,2013-06-09 22:29:00,
2013-06-09 15:30:00,63.0,48.5,30.08,NNW,336,1.0,10.0,59,0.00,,---,0.00,139.00,VWS V14.01,2013-06-09 22:30:00,
2013-06-09 15:34:00,62.9,47.9,30.07,WNW,303,6.0,7.0,58,0.00,,---,0.00,141.00,VWS V14.01,2013-06-09 22:34:00,
2013-06-09 15:39:00,62.9,47.9,30.07,WNW,290,4.0,8.0,58,0.00,,---,0.00,137.00,VWS V14.01,2013-06-09 22:39:00,
2013-06-09 15:44:00,63.0,48.5,30.07,WNW,292,4.0,8.0,59,0.00,,---,0.00,128.00,VWS V14.01,2013-06-09 22:44:00,
2013-06-09 15:49:00,63.0,48.5,30.07,NW,306,1.0,8.0,59,0.00,,---,0.00,127.00,VWS V14.01,2013-06-09 22:49:00,
2013-06-09 15:54:00,63.1,47.6,30.07,North,358,2.0,10.0,57,0.00,,---,0.00,123.00,VWS V14.01,2013-06-09 22:54:00,
2013-06-09 15:59:00,63.0,48.0,30.07,NNW,343,7.0,7.0,58,0.00,,---,0.00,128.00,VWS V14.01,2013-06-09 22:59:00,
2013-06-09 16:00:00,63.1,48.1,30.07,North,358,2.0,10.0,58,0.00,,---,0.00,128.00,VWS V14.01,2013-06-09 23:00:00,
2013-06-09 16:04:00,62.9,48.4,30.07,NNW,343,7.0,11.0,59,0.00,,---,0.00,120.00,VWS V14.01,2013-06-09 23:04:00,
2013-06-09 16:09:00,62.7,48.2,30.06,NW,323,7.0,11.0,59,0.00,,---,0.00,121.00,VWS V14.01,2013-06-09 23:09:00,
2013-06-09 16:14:00,62.5,47.5,30.06,NNE,19,1.0,11.0,58,0.00,,---,0.00,116.00,VWS V14.01,2013-06-09 23:14:00,
2013-06-09 16:19:00,62.5,48.0,30.06,NNE,15,2.0,11.0,59,0.00,,---,0.00,118.00,VWS V14.01,2013-06-09 23:19:00,
2013-06-09 16:24:00,62.5,48.4,30.06,North,2,0.0,11.0,60,0.00,,---,0.00,120.00,VWS V14.01,2013-06-09 23:24:00,
2013-06-09 16:29:00,62.5,47.1,30.06,NNE,33,2.0,10.0,57,0.00,,---,0.00,114.00,VWS V14.01,2013-06-09 23:29:00,
2013-06-09 16:30:00,62.5,47.5,30.06,NNE,17,2.0,11.0,58,0.00,,---,0.00,125.00,VWS V14.01,2013-06-09 23:30:00,
2013-06-09 16:34:00,62.5,48.4,30.06,NNE,28,3.0,10.0,60,0.00,,---,0.00,107.00,VWS V14.01,2013-06-09 23:34:00,
2013-06-09 16:39:00,62.5,47.5,30.05,NNE,15,0.0,10.0,58,0.00,,---,0.00,102.00,VWS V14.01,2013-06-09 23:39:00,
2013-06-09 16:44:00,62.6,48.1,30.05,NNE,16,2.0,10.0,59,0.00,,---,0.00,98.00,VWS V14.01,2013-06-09 23:44:00,
2013-06-09 16:49:00,62.6,47.6,30.05,NNE,12,4.0,10.0,58,0.00,,---,0.00,97.00,VWS V14.01,2013-06-09 23:49:00,
2013-06-09 16:54:00,62.7,47.7,30.05,NE,48,3.0,10.0,58,0.00,,---,0.00,104.00,VWS V14.01,2013-06-09 23:54:00,
2013-06-09 16:59:00,62.8,48.3,30.05,North,359,5.0,7.0,59,0.00,,---,0.00,105.00,VWS V14.01,2013-06-09 23:59:00,
2013-06-09 17:00:00,62.7,48.2,30.05,East,83,0.0,10.0,59,0.00,,---,0.00,104.00,VWS V14.01,2013-06-10 00:00:00,
2013-06-09 17:04:00,63.1,47.6,30.05,NNE,27,9.0,9.0,57,0.00,,---,0.00,98.00,VWS V14.01,2013-06-10 00:04:00,
2013-06-09 17:09:00,63.2,48.2,30.05,NNE,27,4.0,9.0,58,0.00,,---,0.00,88.00,VWS V14.01,2013-06-10 00:09:00,
2013-06-09 17:14:00,63.4,48.4,30.05,NE,35,5.0,9.0,58,0.00,,---,0.00,88.00,VWS V14.01,2013-06-10 00:14:00,
2013-06-09 17:19:00,63.6,47.6,30.05,NNE,18,4.0,11.0,56,0.00,,---,0.00,105.00,VWS V14.01,2013-06-10 00:19:00,
2013-06-09 17:24:00,63.8,47.8,30.04,North,359,5.0,11.0,56,0.00,,---,0.00,83.00,VWS V14.01,2013-06-10 00:24:00,
2013-06-09 17:29:00,64.0,48.0,30.04,NNW,337,4.0,9.0,56,0.00,,---,0.00,77.00,VWS V14.01,2013-06-10 00:29:00,
2013-06-09 17:30:00,63.8,47.3,30.04,NNW,347,3.0,11.0,55,0.00,,---,0.00,79.00,VWS V14.01,2013-06-10 00:30:00,
2013-06-09 17:34:00,64.2,48.7,30.04,North,360,5.0,9.0,57,0.00,,---,0.00,60.00,VWS V14.01,2013-06-10 00:34:00,
2013-06-09 17:39:00,64.3,47.8,30.04,North,6,8.0,11.0,55,0.00,,---,0.00,53.00,VWS V14.01,2013-06-10 00:39:00,
2013-06-09 17:44:00,64.1,48.1,30.04,NNE,25,8.0,11.0,56,0.00,,---,0.00,44.00,VWS V14.01,2013-06-10 00:44:00,
2013-06-09 17:49:00,63.8,48.3,30.04,North,359,6.0,11.0,57,0.00,,---,0.00,51.00,VWS V14.01,2013-06-10 00:49:00,
2013-06-09 17:54:00,63.5,48.0,30.04,NNE,12,2.0,11.0,57,0.00,,---,0.00,42.00,VWS V14.01,2013-06-10 00:54:00,
2013-06-09 17:59:00,63.2,48.2,30.04,NNE,29,2.0,9.0,58,0.00,,---,0.00,40.00,VWS V14.01,2013-06-10 00:59:00,
2013-06-09 18:00:00,63.4,48.4,30.04,NNE,30,5.0,11.0,58,0.00,,---,0.00,42.00,VWS V14.01,2013-06-10 01:00:00,
2013-06-09 18:04:00,63.0,48.0,30.04,NNE,31,0.0,10.0,58,0.00,,---,0.00,37.00,VWS V14.01,2013-06-10 01:04:00,
2013-06-09 18:09:00,62.8,47.4,30.04,North,351,4.0,11.0,57,0.00,,---,0.00,33.00,VWS V14.01,2013-06-10 01:09:00,
2013-06-09 18:14:00,62.4,47.0,30.04,NNE,22,10.0,11.0,57,0.00,,---,0.00,30.00,VWS V14.01,2013-06-10 01:14:00,
2013-06-09 18:19:00,62.0,47.5,30.04,NE,35,4.0,11.0,59,0.00,,---,0.00,33.00,VWS V14.01,2013-06-10 01:19:00,
2013-06-09 18:24:00,61.6,46.7,30.04,NNW,330,11.0,15.0,58,0.00,,---,0.00,23.00,VWS V14.01,2013-06-10 01:24:00,
2013-06-09 18:29:00,61.1,46.2,30.04,NE,37,6.0,10.0,58,0.00,,---,0.00,19.00,VWS V14.01,2013-06-10 01:29:00,
2013-06-09 18:30:00,61.3,46.0,30.04,NNE,13,6.0,16.0,57,0.00,,---,0.00,23.00,VWS V14.01,2013-06-10 01:30:00,
2013-06-09 18:34:00,60.7,46.3,30.04,NW,323,0.0,14.0,59,0.00,,---,0.00,18.00,VWS V14.01,2013-06-10 01:34:00,
2013-06-09 18:39:00,60.5,46.6,30.03,NNE,29,1.0,14.0,60,0.00,,---,0.00,16.00,VWS V14.01,2013-06-10 01:39:00,
2013-06-09 18:44:00,60.3,46.4,30.03,North,355,8.0,14.0,60,0.00,,---,0.00,14.00,VWS V14.01,2013-06-10 01:44:00,
2013-06-09 18:49:00,59.9,46.0,30.03,North,5,6.0,14.0,60,0.00,,---,0.00,14.00,VWS V14.01,2013-06-10 01:49:00,
2013-06-09 18:54:00,59.5,45.6,30.03,NNE,22,4.0,14.0,60,0.00,,---,0.00,16.00,VWS V14.01,2013-06-10 01:54:00,
2013-06-09 18:59:00,59.0,45.6,30.03,North,8,1.0,13.0,61,0.00,,---,0.00,16.00,VWS V14.01,2013-06-10 01:59:00,
2013-06-09 19:00:00,59.4,46.0,30.03,NNE,17,11.0,14.0,61,0.00,,---,0.00,16.00,VWS V14.01,2013-06-10 02:00:00,
2013-06-09 19:04:00,59.0,45.6,30.03,NE,40,5.0,19.0,61,0.00,,---,0.00,14.00,VWS V14.01,2013-06-10 02:04:00,
2013-06-09 19:09:00,58.7,45.7,30.03,NNE,16,9.0,19.0,62,0.00,,---,0.00,12.00,VWS V14.01,2013-06-10 02:09:00,
2013-06-09 19:14:00,58.4,45.0,30.03,North,9,8.0,19.0,61,0.00,,---,0.00,12.00,VWS V14.01,2013-06-10 02:14:00,
2013-06-09 19:19:00,58.2,45.3,30.03,NNE,27,5.0,19.0,62,0.00,,---,0.00,12.00,VWS V14.01,2013-06-10 02:19:00,
2013-06-09 19:24:00,58.0,45.1,30.03,North,355,1.0,19.0,62,0.00,,---,0.00,12.00,VWS V14.01,2013-06-10 02:24:00,
2013-06-09 19:29:00,57.7,44.8,30.03,NNE,22,0.0,7.0,62,0.00,,---,0.00,14.00,VWS V14.01,2013-06-10 02:29:00,
2013-06-09 19:30:00,57.8,44.9,30.03,NNE,17,5.0,19.0,62,0.00,,---,0.00,11.00,VWS V14.01,2013-06-10 02:30:00,
2013-06-09 19:34:00,57.6,44.7,30.02,North,352,6.0,14.0,62,0.00,,---,0.00,11.00,VWS V14.01,2013-06-10 02:34:00,
2013-06-09 19:39:00,57.4,44.5,30.03,NNE,15,5.0,14.0,62,0.00,,---,0.00,14.00,VWS V14.01,2013-06-10 02:39:00,
2013-06-09 19:44:00,57.3,44.8,30.03,NNE,20,4.0,14.0,63,0.00,,---,0.00,14.00,VWS V14.01,2013-06-10 02:44:00,
2013-06-09 19:49:00,57.2,44.3,30.03,North,9,6.0,14.0,62,0.00,,---,0.00,12.00,VWS V14.01,2013-06-10 02:49:00,
2013-06-09 19:54:00,57.1,44.2,30.03,NNE,16,3.0,14.0,62,0.00,,---,0.00,12.00,VWS V14.01,2013-06-10 02:54:00,
2013-06-09 19:59:00,56.9,44.0,30.03,North,4,7.0,9.0,62,0.00,,---,0.00,11.00,VWS V14.01,2013-06-10 02:59:00,
2013-06-09 20:00:00,57.0,44.1,30.03,NNE,12,6.0,14.0,62,0.00,,---,0.00,11.00,VWS V14.01,2013-06-10 03:00:00,
2013-06-09 20:04:00,56.8,44.3,30.03,NNE,16,6.0,10.0,63,0.00,,---,0.00,12.00,VWS V14.01,2013-06-10 03:04:00,
2013-06-09 20:09:00,56.7,44.3,30.03,NE,34,5.0,10.0,63,0.00,,---,0.00,12.00,VWS V14.01,2013-06-10 03:09:00,
2013-06-09 20:14:00,56.5,44.1,30.03,NNE,27,5.0,10.0,63,0.00,,---,0.00,11.00,VWS V14.01,2013-06-10 03:14:00,
2013-06-09 20:19:00,56.4,44.0,30.03,NE,35,5.0,10.0,63,0.00,,---,0.00,11.00,VWS V14.01,2013-06-10 03:19:00,
2013-06-09 20:24:00,56.3,43.9,30.03,NE,35,4.0,10.0,63,0.00,,---,0.00,9.00,VWS V14.01,2013-06-10 03:24:00,
2013-06-09 20:29:00,56.1,44.1,30.02,NNE,33,0.0,8.0,64,0.00,,---,0.00,7.00,VWS V14.01,2013-06-10 03:29:00,
2013-06-09 20:30:00,56.2,44.2,30.02,NNE,12,5.0,10.0,64,0.00,,---,0.00,7.00,VWS V14.01,2013-06-10 03:30:00,
2013-06-09 20:34:00,55.9,44.3,30.02,NNE,21,2.0,8.0,65,0.00,,---,0.00,5.00,VWS V14.01,2013-06-10 03:34:00,
2013-06-09 20:39:00,55.8,43.8,30.02,NNE,18,0.0,8.0,64,0.00,,---,0.00,0.00,VWS V14.01,2013-06-10 03:39:00,
2013-06-09 20:44:00,55.6,44.0,30.02,NNE,25,0.0,8.0,65,0.00,,---,0.00,0.00,VWS V14.01,2013-06-10 03:44:00,
2013-06-09 20:49:00,55.4,43.8,30.02,NNE,29,0.0,8.0,65,0.00,,---,0.00,0.00,VWS V14.01,2013-06-10 03:49:00,
2013-06-09 20:54:00,55.3,43.8,30.03,NNE,26,0.0,8.0,65,0.00,,---,0.00,0.00,VWS V14.01,2013-06-10 03:54:00,
2013-06-09 20:59:00,55.0,43.9,30.03,NNE,31,1.0,6.0,66,0.00,,---,0.00,0.00,VWS V14.01,2013-06-10 03:59:00,
2013-06-09 21:00:00,55.1,44.0,30.03,NNE,33,0.0,8.0,66,0.00,,---,0.00,0.00,VWS V14.01,2013-06-10 04:00:00,
2013-06-09 21:01:00,55.0,43.9,30.03,NNE,33,3.0,8.0,66,0.00,,---,0.00,0.00,VWS V14.01,2013-06-10 04:01:00,
2013-06-09 21:07:00,54.8,44.1,30.03,NE,34,0.0,8.0,67,0.00,,---,0.00,0.00,VWS V14.01,2013-06-10 04:07:00,
2013-06-09 21:12:00,54.6,43.5,30.03,NNE,19,4.0,8.0,66,0.00,,---,0.00,0.00,VWS V14.01,2013-06-10 04:12:00,
2013-06-09 21:17:00,54.5,43.8,30.03,NNE,23,1.0,8.0,67,0.00,,---,0.00,0.00,VWS V14.01,2013-06-10 04:17:00,
2013-06-09 21:22:00,54.3,43.6,30.03,NNE,22,5.0,9.0,67,0.00,,---,0.00,0.00,VWS V14.01,2013-06-10 04:22:00,
2013-06-09 21:27:00,54.1,43.8,30.03,NNE,29,0.0,2.0,68,0.00,,---,0.00,0.00,VWS V14.01,2013-06-10 04:27:00,
2013-06-09 21:30:00,54.2,43.9,30.03,NNE,29,0.0,9.0,68,0.00,,---,0.00,0.00,VWS V14.01,2013-06-10 04:30:00,
2013-06-09 21:32:00,54.0,43.7,30.03,NNE,29,0.0,5.0,68,0.00,,---,0.00,0.00,VWS V14.01,2013-06-10 04:32:00,
2013-06-09 21:37:00,53.9,43.6,30.03,NNE,31,2.0,9.0,68,0.00,,---,0.00,0.00,VWS V14.01,2013-06-10 04:37:00,
2013-06-09 21:42:00,53.7,43.4,30.03,NNE,33,1.0,9.0,68,0.00,,---,0.00,0.00,VWS V14.01,2013-06-10 04:42:00,
2013-06-09 21:47:00,53.6,43.3,30.03,NE,35,4.0,9.0,68,0.00,,---,0.00,0.00,VWS V14.01,2013-06-10 04:47:00,
2013-06-09 21:52:00,53.5,43.2,30.03,NE,37,1.0,9.0,68,0.00,,---,0.00,0.00,VWS V14.01,2013-06-10 04:52:00,
2013-06-09 21:57:00,53.3,43.4,30.03,NE,37,1.0,6.0,69,0.00,,---,0.00,0.00,VWS V14.01,2013-06-10 04:57:00,
2013-06-09 22:00:00,53.3,43.0,30.03,NE,35,1.0,9.0,68,0.00,,---,0.00,0.00,VWS V14.01,2013-06-10 05:00:00,
2013-06-09 22:02:00,53.2,43.3,30.04,NNE,17,2.0,8.0,69,0.00,,---,0.00,0.00,VWS V14.01,2013-06-10 05:02:00,
2013-06-09 22:07:00,53.1,43.2,30.04,NNE,17,0.0,8.0,69,0.00,,---,0.00,0.00,VWS V14.01,2013-06-10 05:07:00,
2013-06-09 22:12:00,53.0,43.1,30.04,NNE,20,0.0,8.0,69,0.00,,---,0.00,0.00,VWS V14.01,2013-06-10 05:12:00,
2013-06-09 22:17:00,52.8,42.9,30.04,NNE,29,0.0,8.0,69,0.00,,---,0.00,0.00,VWS V14.01,2013-06-10 05:17:00,
2013-06-09 22:22:00,52.8,43.3,30.04,NNE,23,0.0,8.0,70,0.00,,---,0.00,0.00,VWS V14.01,2013-06-10 05:22:00,
2013-06-09 22:27:00,52.7,43.2,30.04,NNE,25,1.0,1.0,70,0.00,,---,0.00,0.00,VWS V14.01,2013-06-10 05:27:00,
2013-06-09 22:30:00,52.7,43.2,30.04,NNE,24,0.0,8.0,70,0.00,,---,0.00,0.00,VWS V14.01,2013-06-10 05:30:00,
2013-06-09 22:32:00,52.6,43.1,30.04,NE,54,1.0,7.0,70,0.00,,---,0.00,0.00,VWS V14.01,2013-06-10 05:32:00,
2013-06-09 22:37:00,52.5,43.0,30.04,NNE,23,5.0,8.0,70,0.00,,---,0.00,0.00,VWS V14.01,2013-06-10 05:37:00,
2013-06-09 22:42:00,52.6,43.1,30.04,NE,37,2.0,8.0,70,0.00,,---,0.00,0.00,VWS V14.01,2013-06-10 05:42:00,
2013-06-09 22:47:00,52.6,43.5,30.04,NNE,30,1.0,8.0,71,0.00,,---,0.00,0.00,VWS V14.01,2013-06-10 05:47:00,
2013-06-09 22:52:00,52.7,43.2,30.04,NE,35,0.0,8.0,70,0.00,,---,0.00,0.00,VWS V14.01,2013-06-10 05:52:00,
2013-06-09 22:57:00,52.8,43.3,30.04,NE,54,0.0,2.0,70,0.00,,---,0.00,0.00,VWS V14.01,2013-06-10 05:57:00,
2013-06-09 23:00:00,52.8,43.3,30.04,NE,54,0.0,8.0,70,0.00,,---,0.00,0.00,VWS V14.01,2013-06-10 06:00:00,
2013-06-09 23:02:00,52.9,43.8,30.04,NE,52,0.0,8.0,71,0.00,,---,0.00,0.00,VWS V14.01,2013-06-10 06:02:00,
2013-06-09 23:07:00,53.0,43.5,30.04,NE,51,4.0,9.0,70,0.00,,---,0.00,0.00,VWS V14.01,2013-06-10 06:07:00,
2013-06-09 23:12:00,53.0,43.5,30.04,NE,53,5.0,9.0,70,0.00,,---,0.00,0.00,VWS V14.01,2013-06-10 06:12:00,
2013-06-09 23:17:00,53.1,43.6,30.04,NE,52,0.0,9.0,70,0.00,,---,0.00,0.00,VWS V14.01,2013-06-10 06:17:00,
2013-06-09 23:22:00,53.1,43.6,30.04,NE,52,1.0,9.0,70,0.00,,---,0.00,0.00,VWS V14.01,2013-06-10 06:22:00,
2013-06-09 23:27:00,53.2,43.7,30.04,NE,56,5.0,5.0,70,0.00,,---,0.00,0.00,VWS V14.01,2013-06-10 06:27:00,
2013-06-09 23:30:00,53.2,43.7,30.04,NE,55,1.0,9.0,70,0.00,,---,0.00,0.00,VWS V14.01,2013-06-10 06:30:00,
2013-06-09 23:32:00,53.2,43.7,30.04,NE,56,1.0,8.0,70,0.00,,---,0.00,0.00,VWS V14.01,2013-06-10 06:32:00,
2013-06-09 23:37:00,53.2,43.7,30.04,NE,56,0.0,8.0,70,0.00,,---,0.00,0.00,VWS V14.01,2013-06-10 06:37:00,
2013-06-09 23:42:00,53.2,43.3,30.04,ENE,71,4.0,10.0,69,0.00,,---,0.00,0.00,VWS V14.01,2013-06-10 06:42:00,
2013-06-09 23:47:00,53.1,43.6,30.03,ENE,57,6.0,10.0,70,0.00,,---,0.00,0.00,VWS V14.01,2013-06-10 06:47:00,
2013-06-09 23:52:00,53.0,43.1,30.03,East,101,5.0,10.0,69,0.00,,---,0.00,0.00,VWS V14.01,2013-06-10 06:52:00,
2013-06-09 23:57:00,52.9,43.0,30.03,ENE,65,1.0,6.0,69,0.00,,---,0.00,0.00,VWS V14.01,2013-06-10 06:57:00,